NOAA 3

Satellite information

Favourite Embed

Satellite Type and Status

PAYLOADIN ORBIT

Key statistics

Satellite NOAA 3 at a glance.

Uptime

18871

Days in orbit

Revolutions

≈ 12.4

Per day

Orbit

SSO

Sun Synchronous Orbit

Inclination

102.3

Latest

Satellite identification and parameters

Extended collection of information and parameters for NOAA 3.

Object identification

Identified? True

Debris? False

Object name: NOAA 3

International designator: 1973-086A

Object number (NORAD): 6920

Object ID (CCSDS): 6920

Country: UNITED STATES OF AMERICA (US)

Current information (Y/N): Y

RCS size: LARGE

Orbital parameters

Period: 116.093 minutes

Inclination: 102.2884 deg

SMA: 7883.115 km

Apoapsis: 1510.335 km

Periapsis: 1499.625 km

RAAN: 193.5041 deg

Eccentricy: 0.0006793

Argument of periapsis: 42.6848 deg

Mean anomaly: 16.3509 deg

Mean motion: 12.40383583 rev/day

Mean motion (dot): -0.00000023 rev/day2

B* drag term: 0.0001711 1/REarth

Two-line elements (TLE)

Creation date: July 6, 2025, 10:56 p.m.

Reference frame: TEME

Reference center: EARTH

Epoch: July 6, 2025, 10:06 p.m. UTC

TLE line 0: 0 NOAA 3

TLE line 1: 1 6920U 73086A 25187.92096519 -.00000023 00000-0 17110-3 0 9994

TLE line 2: 2 6920 102.2884 193.5041 0006793 42.6848 16.3509 12.40383583339280

Live tracking on map

Real-time ground track for satellite NOAA 3.

In-orbit conjunctions

There are no conjunctions computed for NOAA 3, at the moment. Check back to stay up to date, as we update our databases every day.

Go to all conjunctions

Associated space launch

Meteorological satellite using radiometric imaging

NOAA 3 was lifted into orbit during the mission ‘Delta 0300 | NOAA 3’, on board a Delta 0300 space rocket.

The launch took place on Nov. 6, 1973, 5:02 p.m. from Space Launch Complex 2W.

For more information about the launch, click the button.

Launch to space Delta 0300 | NOAA 3
Delta 0300 | NOAA 3

Agency: N/A

Status: Launch Successful

Launch date: Nov. 6, 1973, 5:02 p.m. UTC

Rocket: Delta 0300

Launch pad: Space Launch Complex 2W

Location: Vandenberg SFB, CA, USA

...

Latest news about this satellite

There are no fresh news available about this satellite. Check back as we update our databases every day.


Newsletter sign-up

Weekly statistics, charts and insights to help you stay on top of the space industry.